Melilla, Spain

7:10 PM CET on March 25, 2017 (GMT +0100)
Melilla

Weather History for GEML - February, 2014

Change the Weather History Date:

Sunday, February 9, 2014

  Actual Average Record
Temperature  
Mean Temperature 60 °F -  
Max Temperature 68 °F 64 °F 68 °F (2002)
Min Temperature 53 °F 52 °F 42 °F (2011)
Degree Days  
Heating Degree Days 4    
Growing Degree Days 10 (Base 50)    
Moisture  
Dew Point 51 °F    
Average Humidity 64    
Maximum Humidity 94    
Minimum Humidity 43    
Precipitation  
Precipitation 0.00 in 0.07 in - ()
Sea Level Pressure  
Sea Level Pressure 29.94 in    
Wind  
Wind Speed 4 mph ()    
Max Wind Speed 12 mph    
Max Gust Speed -    
Visibility 9.1 miles    
Events      
Averages and records for this station are not official NWS values.
T = Trace of Precipitation, MM = Missing Value Source: Averaged Metar Reports

Daily Weather History Graph

Daily Weather History Graph

Search for Another Location

Airport or City:

Trip Planner

Search our weather history database for the weather conditions in past years. The results will help you decide how hot, cold, wet, or windy it might be!

Date:

Astronomy

Feb. 09, 2014 Rise Set
Actual Time 8:04 AM CET 6:48 PM CET
Civil Twilight 7:38 AM CET 7:14 PM CET
Nautical Twilight 7:08 AM CET 7:44 PM CET
Astronomical Twilight 6:38 AM CET 8:14 PM CET
Moon 2:20 PM CET (2/9) 3:53 AM CET (2/9)
Length of Visible Light 11h 36m
Length of Day
10h 43m
Waxing Gibbous, 75% of the Moon is Illuminated
Feb 9
Waxing Gibbous
Feb 15
Full
Feb 22
Last Quarter
Mar 1
New
Mar 8
First Quarter

Hourly Weather History & Observations

Time (CET) Temp. Dew Point Humidity Pressure Visibility Wind Dir Wind Speed Gust Speed Precip Events Conditions
6:00 AM 59.0 °F 53.6 °F 82% 30.04 in 6.2 mi WSW 6.9 mph - N/A   Mostly Cloudy
6:30 AM 57.2 °F 53.6 °F 88% 30.01 in 6.2 mi West 8.1 mph - N/A   Scattered Clouds
7:00 AM 57 °F 54 °F 86% 30.02 in 16 mi WSW 4.6 mph - -   Partly Cloudy
7:00 AM 57.2 °F 53.6 °F 88% 30.01 in 6.2 mi WSW 5.8 mph - N/A   Scattered Clouds
7:30 AM 55.4 °F 53.6 °F 94% 30.01 in 6.2 mi Variable 1.2 mph - N/A   Partly Cloudy
8:00 AM 55.4 °F 50.0 °F 82% 30.01 in 6.2 mi Variable 1.2 mph - N/A   Partly Cloudy
8:30 AM 53.6 °F 50.0 °F 88% 30.04 in 6.2 mi WSW 3.5 mph - N/A   Partly Cloudy
9:00 AM 55.4 °F 51.8 °F 88% 30.04 in 6.2 mi WSW 3.5 mph - N/A   Partly Cloudy
9:30 AM 59.0 °F 53.6 °F 82% 30.04 in 6.2 mi Calm Calm - N/A   Partly Cloudy
10:00 AM 61 °F 52 °F 64% 30.03 in 19 mi Calm Calm - -   Scattered Clouds
10:00 AM 60.8 °F 51.8 °F 72% 30.04 in 6.2 mi Variable 1.2 mph - N/A   Partly Cloudy
10:30 AM 60.8 °F 51.8 °F 72% 30.01 in - Variable 1.2 mph - N/A   Clear
11:00 AM 62.6 °F 51.8 °F 68% 30.01 in - Calm Calm - N/A   Clear
11:30 AM 64.4 °F 50.0 °F 59% 30.01 in - Calm Calm - N/A   Clear
12:00 PM 66.2 °F 50.0 °F 56% 30.01 in - Variable 1.2 mph - N/A   Clear
12:30 PM 66.2 °F 50.0 °F 56% 30.01 in - NE 3.5 mph - N/A   Clear
1:00 PM 65 °F 50 °F 48% 29.99 in 31 mi North 3.5 mph - -   Clear
1:00 PM 66.2 °F 50.0 °F 56% 29.98 in - Variable 2.3 mph - N/A   Clear
1:30 PM 68.0 °F 50.0 °F 52% 29.95 in - East 4.6 mph - N/A   Clear
2:00 PM 66.2 °F 50.0 °F 56% 29.92 in - Variable 2.3 mph - N/A   Clear
2:30 PM 68.0 °F 51.8 °F 56% 29.89 in - East 3.5 mph - N/A   Clear
3:00 PM 68.0 °F 50.0 °F 52% 29.86 in - Variable 2.3 mph - N/A   Clear
3:30 PM 66.2 °F 51.8 °F 60% 29.86 in - Variable 2.3 mph - N/A   Clear
4:00 PM 66 °F 53 °F 54% 29.83 in 31 mi Calm Calm - -   Overcast
4:00 PM 66.2 °F 53.6 °F 64% 29.83 in - ESE 1.2 mph - N/A   Clear
4:30 PM 64.4 °F 55.4 °F 73% 29.83 in - Variable 2.3 mph - N/A   Clear
5:00 PM 66.2 °F 55.4 °F 68% 29.83 in - Variable 1.2 mph - N/A   Clear
5:30 PM 68.0 °F 48.2 °F 49% 29.83 in - West 6.9 mph - N/A   Clear
6:00 PM 68.0 °F 46.4 °F 46% 29.83 in - West 9.2 mph - N/A   Clear
6:30 PM 68.0 °F 46.4 °F 46% 29.83 in - West 11.5 mph - N/A   Clear
7:00 PM 67 °F 49 °F 43% 29.82 in 31 mi West 10.4 mph - -   Overcast
7:00 PM 68.0 °F 48.2 °F 49% 29.83 in - West 9.2 mph - N/A   Clear
7:30 PM 68.0 °F 48.2 °F 49% 29.80 in - West 8.1 mph - N/A   Clear
10:00 PM 66 °F 50 °F 46% 29.79 in 19 mi WNW 4.6 mph - -   Overcast